Regional Weather Roundup
Issued by NWS

Home | Current Version | Previous Version | Text Only | Print | Product List | Glossary Off
Versions: 1 2 3 4 5 6 7 8 9 10 11 12 13 14 15 16 17 18 19 20 21 22 23 24 25 26 27 28 29 30 31 32 33 34 35 36 37 38 39 40 41 42 43 44 45 46 47 48 49 50

000
ASUS45 KPSR 222300
RWRAZ

PRELIMINARY ARIZONA REGIONAL HOURLY WEATHER ROUNDUP
NATIONAL WEATHER SERVICE PHOENIX AZ
400 PM MST WED OCT 22 2014

NOTE: FAIR INDICATES FEW OR NO CLOUDS BELOW 12,000 FEET WITH NO
SIGNIFICANT WEATHER AND/OR OBSTRUCTIONS TO VISIBILITY.

AZZ001>003-036-230000-
NORTHWEST ARIZONA

CITY           SKY/WX    TMP DP  RH WIND       PRES   REMARKS
KINGMAN        SUNNY     79  35  20 SW12      30.05F
$$

AZZ004>008-015-016-018-230000-
NORTH CENTRAL ARIZONA

CITY           SKY/WX    TMP DP  RH WIND       PRES   REMARKS
GRAND CANYON   SUNNY     67  31  26 SW10      30.22S
PRESCOTT       MOSUNNY   75  38  26 CALM      30.13S
FLAGSTAFF      MOSUNNY   64  37  36 S13       30.23S
PAYSON         SUNNY     73  43  33 SW7       30.16S
PAGE           SUNNY     77  37  23 N3        30.07S
$$

AZZ009>014-017-230000-
NORTHEAST ARIZONA

CITY           SKY/WX    TMP DP  RH WIND       PRES   REMARKS
WINSLOW        NOT AVBL
SAINT JOHNS    SUNNY     72  35  25 N9        30.14F
WINDOW ROCK    MOSUNNY   68  32  26 W10       30.20S
$$

AZZ023-230000-
GREATER PHOENIX AREA

CITY           SKY/WX    TMP DP  RH WIND       PRES   REMARKS
PHOENIX        MOSUNNY   91  46  21 VRB5      29.89S
GLENDALE       MOSUNNY   90  48  24 E5        29.91F
LUKE AFB       SUNNY     89  47  23 CALM      29.89F
DEER VALLEY    SUNNY     87  42  20 S6        29.91S
SCOTTSDALE     SUNNY     88  47  24 CALM      29.93S
MESA-GATEWAY   MOSUNNY   88  46  23 CALM      29.93S
CHANDLER       MOSUNNY   90  48  24 CALM      29.91S
$$

AZZ027-028-230000-
SOUTHWEST MARICOPA COUNTY AND PINAL COUNTY

CITY           SKY/WX    TMP DP  RH WIND       PRES   REMARKS
CASA GRANDE    SUNNY     88  48  25 CALM      29.92F
GILA BEND      CLEAR     91  41  17 N3        29.90S
$$

AZZ503-504-507>509-230000-
SOUTHEAST ARIZONA

CITY           SKY/WX    TMP DP  RH WIND       PRES   REMARKS
TUCSON         SUNNY     89  41  18 N6        29.98S
DAVIS-MONTHAN  SUNNY     85  44  23 CALM      29.97S
RYAN FIELD       N/A     90  45  20 NW9       29.97S
NOGALES        SUNNY     82  43  25 W8        30.03S
SIERRA VISTA   MOSUNNY   79  39  24 N5        30.09S
SAFFORD        SUNNY     80  48  32 SW5       30.01S
$$

AZZ020-021-025-026-031-230000-
SOUTHWEST ARIZONA

CITY           SKY/WX    TMP DP  RH WIND       PRES   REMARKS
YUMA           NOT AVBL
$$

CAZ031-033-041-043-047-048-061-230000-
SOUTHERN CALIFORNIA

CITY           SKY/WX    TMP DP  RH WIND       PRES   REMARKS
DOWNTOWN L.A.  SUNNY     79  56  45 VRB5      29.89S
L.A. AIRPORT   MOSUNNY   73  62  68 W13       29.90S
SAN DIEGO      PTSUNNY   76  61  59 NW9       29.91S
BURBANK        SUNNY     84  52  33 S8        29.89S
ONTARIO        PTSUNNY   89  40  17 W8        29.89S
RIVERSIDE      SUNNY     89  39  17 W8        29.89R
PALM SPRINGS   SUNNY     94  26   9 S5        29.88S
EL CENTRO NAS  MOSUNNY   94  46  19 CALM      29.84S
IMPERIAL       SUNNY     93  48  21 NE6       29.83S
BLYTHE         SUNNY     92  43  18 VRB3      29.87S
$$

NVZ020-UTZ003-230000-
SOUTHERN NEVADA-UTAH

CITY           SKY/WX    TMP DP  RH WIND       PRES   REMARKS
LAS VEGAS      NOT AVBL
SALT LAKE CITY PTSUNNY   61  31  32 N9        30.15F
$$

NMZ009-TXZ055-230000-
NEW MEXICO-WEST TEXAS

CITY           SKY/WX    TMP DP  RH WIND       PRES   REMARKS
ALBUQUERQUE    PTSUNNY   73  38  27 CALM      30.13F
EL PASO        MOSUNNY   76  51  41 VRB3      30.07S
$$


........................KEY........................
SKY/WX - SKY CONDITION/WEATHER
TMP    - TEMPERATURE IN FAHRENHEIT
DP     - DEW POINT IN FAHRENHEIT
RH     - RELATIVE HUMIDITY IN PERCENT
WIND   - DIRECTION AND SPEED IN MILES PER HOUR (MPH)
VRB    - VARIABLE WIND DIRECTION
PRES   - MEAN SEA LEVEL PRESSURE IN INCHES OF MERCURY
         F - FALLING PRESSURE   R - RISING PRESSURE
         S - STEADY PRESSURE
VSB    - VISIBILITY IN MILES
HX     - HEAT INDEX IN FAHRENHEIT
WCI    - WIND CHILL INDEX IN FAHRENHEIT
TC     - TEMPERATURE IN CELSIUS WHICH IS ALSO KNOWN AS
         TEMPERATURE IN CENTIGRADE
AFB    - AIR FORCE BASE
         LUKE AFB IS LUKE AIR FORCE BASE
         DAVIS-MONTHAN IS DAVIS-MONTHAN AIR FORCE BASE
NAS    - NAVAL AIR STATION
         EL CENTRO NAS IS EL CENTRO NAVAL AIR STATION
N/A    - NOT AVAILABLE



USA.gov is the U.S. government's official web portal to all federal, state and local government web resources and services.